| time (UTC) | temp F | wind direction | speed MPH | gust MPH | rain 1hr in | rain 24hr in | rain mn in | humidity % | barometer mb |
| 20260506014504 | 79 | 324 | 4.0 | 9.0 | 0.00 | 0.00 | 0.00 | 27 | 995.2 |
| 20260506013003 | 80 | 334 | 2.0 | 4.0 | 0.00 | 0.00 | 0.00 | 26 | 995.1 |
| 20260506011503 | 80 | 195 | 3.0 | 9.0 | 0.00 | 0.00 | 0.00 | 25 | 994.8 |
| 20260506010003 | 80 | 186 | 7.0 | 8.0 | 0.00 | 0.00 | 0.00 | 26 | 994.8 |
| 20260506004553 | 80 | 182 | 9.0 | 10.0 | 0.00 | 0.00 | 0.00 | 25 | 994.9 |
| 20260506003054 | 81 | 209 | 8.0 | 14.0 | 0.00 | 0.00 | 0.00 | 25 | 994.8 |
| 20260506001554 | 81 | 223 | 10.0 | 16.0 | 0.00 | 0.00 | 0.00 | 25 | 994.8 |
| 20260506000050 | 81 | 221 | 10.0 | 18.0 | 0.00 | 0.00 | 0.00 | 24 | 994.8 |
| 20260505234559 | 81 | 208 | 5.0 | 11.0 | 0.00 | 0.00 | 0.00 | 25 | 995.0 |
| 20260505233104 | 80 | 280 | 7.0 | 14.0 | 0.00 | 0.00 | 0.00 | 25 | 995.1 |
| 20260505231611 | 80 | 259 | 16.0 | 20.0 | 0.00 | 0.00 | 0.00 | 25 | 995.3 |
| 20260505230055 | 79 | 232 | 10.0 | 15.0 | 0.00 | 0.00 | 0.00 | 25 | 995.4 |
| 20260505224544 | 79 | 259 | 14.0 | 22.0 | 0.00 | 0.00 | 0.00 | 26 | 995.6 |
| 20260505223043 | 79 | 250 | 14.0 | 20.0 | 0.00 | 0.00 | 0.00 | 26 | 996.0 |
| 20260505221545 | 78 | 267 | 19.0 | 25.0 | 0.00 | 0.00 | 0.00 | 26 | 995.9 |
| 20260505220045 | 77 | 266 | 20.0 | 26.0 | 0.00 | 0.00 | 0.00 | 26 | 996.1 |
| 20260505214556 | 77 | 288 | 16.0 | 26.0 | 0.00 | 0.00 | 0.00 | 26 | 996.5 |
| 20260505213047 | 77 | 261 | 22.0 | 31.0 | 0.00 | 0.00 | 0.00 | 25 | 996.6 |
| 20260505211546 | 77 | 292 | 25.0 | 33.0 | 0.00 | 0.00 | 0.00 | 25 | 996.9 |
| 20260505210047 | 78 | 284 | 27.0 | 32.0 | 0.00 | 0.00 | 0.00 | 24 | 996.7 |
| 20260505204556 | 79 | 279 | 20.0 | 29.0 | 0.00 | 0.00 | 0.00 | 24 | 997.0 |
| 20260505203114 | 79 | 280 | 21.0 | 33.0 | 0.00 | 0.00 | 0.00 | 24 | 997.0 |
| 20260505201600 | 79 | 270 | 18.0 | 31.0 | 0.00 | 0.00 | 0.00 | 26 | 996.9 |
| 20260505200054 | 78 | 279 | 21.0 | 29.0 | 0.00 | 0.00 | 0.00 | 26 | 997.0 |
| 20260505194557 | 78 | 271 | 21.0 | 27.0 | 0.00 | 0.00 | 0.00 | 27 | 997.2 |
| 20260505193056 | 77 | 288 | 20.0 | 29.0 | 0.00 | 0.00 | 0.00 | 28 | 997.1 |
| 20260505191608 | 77 | 290 | 22.0 | 28.0 | 0.00 | 0.00 | 0.00 | 27 | 997.1 |
| 20260505190053 | 76 | 252 | 21.0 | 27.0 | 0.00 | 0.00 | 0.00 | 30 | 997.2 |
| 20260505184552 | 76 | 259 | 22.0 | 33.0 | 0.00 | 0.00 | 0.00 | 30 | 997.2 |
| 20260505183051 | 76 | 259 | 23.0 | 34.0 | 0.00 | 0.00 | 0.00 | 30 | 997.4 |
| 20260505181552 | 76 | 279 | 25.0 | 34.0 | 0.00 | 0.00 | 0.00 | 31 | 997.7 |
| 20260505180053 | 77 | 269 | 21.0 | 31.0 | 0.00 | 0.00 | 0.00 | 31 | 997.9 |
| 20260505174552 | 76 | 302 | 19.0 | 26.0 | 0.00 | 0.00 | 0.00 | 31 | 998.0 |
| 20260505173055 | 76 | 286 | 19.0 | 28.0 | 0.00 | 0.00 | 0.00 | 31 | 998.0 |
| 20260505171550 | 75 | 291 | 20.0 | 26.0 | 0.00 | 0.00 | 0.00 | 31 | 998.0 |
| 20260505170104 | 75 | 317 | 21.0 | 30.0 | 0.00 | 0.00 | 0.00 | 30 | 998.1 |
| 20260505164547 | 75 | 286 | 24.0 | 31.0 | 0.00 | 0.00 | 0.00 | 31 | 997.9 |
| 20260505163044 | 75 | 275 | 23.0 | 28.0 | 0.00 | 0.00 | 0.00 | 29 | 997.9 |
| 20260505161542 | 75 | 290 | 25.0 | 30.0 | 0.00 | 0.00 | 0.00 | 29 | 997.8 |
| 20260505153036 | 73 | 280 | 20.0 | 29.0 | 0.00 | 0.00 | 0.00 | 29 | 997.4 |
| 20260505151549 | 73 | 277 | 24.0 | 31.0 | 0.00 | 0.00 | 0.00 | 29 | 997.2 |
| 20260505124510 | 69 | 230 | 14.0 | 16.0 | 0.00 | 0.00 | 0.00 | 33 | 996.1 |
| 20260505123004 | 68 | 229 | 13.0 | 15.0 | 0.00 | 0.00 | 0.00 | 33 | 995.9 |
| 20260505121503 | 69 | 227 | 13.0 | 15.0 | 0.00 | 0.00 | 0.00 | 32 | 995.8 |
| 20260505120100 | 69 | 217 | 13.0 | 16.0 | 0.00 | 0.00 | 0.00 | 30 | 995.8 |
| 20260505114558 | 69 | 212 | 12.0 | 14.0 | 0.00 | 0.00 | 0.00 | 31 | 995.5 |
| 20260505113057 | 70 | 200 | 10.0 | 11.0 | 0.00 | 0.00 | 0.00 | 30 | 995.4 |
| 20260505111559 | 71 | 205 | 11.0 | 12.0 | 0.00 | 0.00 | 0.00 | 27 | 995.4 |
| 20260505101601 | 69 | 252 | 10.0 | 14.0 | 0.00 | 0.00 | 0.00 | 32 | 995.2 |
| 20260505094546 | 71 | 250 | 12.0 | 14.0 | 0.00 | 0.00 | 0.00 | 31 | 995.2 |
| 20260505093046 | 71 | 252 | 13.0 | 15.0 | 0.00 | 0.00 | 0.00 | 31 | 995.3 |
| 20260505091545 | 71 | 232 | 13.0 | 17.0 | 0.00 | 0.00 | 0.00 | 32 | 995.3 |
| 20260505090055 | 72 | 245 | 14.0 | 17.0 | 0.00 | 0.00 | 0.00 | 31 | 995.2 |
| 20260505084548 | 73 | 259 | 14.0 | 17.0 | 0.00 | 0.00 | 0.00 | 29 | 995.1 |
| 20260505083039 | 74 | 242 | 12.0 | 15.0 | 0.00 | 0.00 | 0.00 | 30 | 995.2 |
| 20260505081543 | 74 | 238 | 13.0 | 16.0 | 0.00 | 0.00 | 0.00 | 28 | 995.2 |
| 20260505080034 | 76 | 236 | 13.0 | 20.0 | 0.00 | 0.00 | 0.00 | 28 | 995.4 |
| 20260505074536 | 76 | 235 | 14.0 | 20.0 | 0.00 | 0.00 | 0.00 | 28 | 995.6 |
| 20260505073038 | 75 | 219 | 12.0 | 18.0 | 0.00 | 0.00 | 0.00 | 28 | 995.4 |
| 20260505071531 | 74 | 177 | 9.0 | 14.0 | 0.00 | 0.00 | 0.00 | 30 | 995.7 |
| 20260505070032 | 74 | 246 | 11.0 | 14.0 | 0.00 | 0.00 | 0.00 | 30 | 995.7 |
| 20260505064529 | 75 | 246 | 11.0 | 18.0 | 0.00 | 0.00 | 0.00 | 29 | 995.6 |
| 20260505063029 | 75 | 242 | 15.0 | 18.0 | 0.00 | 0.00 | 0.00 | 27 | 995.5 |
| 20260505061531 | 75 | 207 | 12.0 | 17.0 | 0.00 | 0.00 | 0.00 | 29 | 995.7 |
| 20260505060033 | 74 | 190 | 8.0 | 9.0 | 0.00 | 0.00 | 0.00 | 30 | 995.8 |
| 20260505054535 | 75 | 183 | 7.0 | 8.0 | 0.00 | 0.00 | 0.00 | 30 | 996.2 |
| 20260505053023 | 76 | 228 | 6.0 | 11.0 | 0.00 | 0.00 | 0.00 | 27 | 996.1 |
| 20260505051523 | 76 | 229 | 12.0 | 15.0 | 0.00 | 0.00 | 0.00 | 27 | 996.2 |
| 20260505041528 | 78 | 227 | 7.0 | 10.0 | 0.00 | 0.00 | 0.00 | 24 | 996.4 |
| 20260505040026 | 78 | 230 | 13.0 | 16.0 | 0.00 | 0.00 | 0.00 | 24 | 996.4 |
| 20260505034529 | 80 | 263 | 12.0 | 16.0 | 0.00 | 0.00 | 0.00 | 21 | 996.2 |
| 20260505033044 | 80 | 245 | 13.0 | 16.0 | 0.00 | 0.00 | 0.00 | 22 | 995.7 |
| 20260505031529 | 80 | 252 | 14.0 | 16.0 | 0.00 | 0.00 | 0.00 | 21 | 995.6 |
| 20260505030029 | 80 | 243 | 15.0 | 17.0 | 0.00 | 0.00 | 0.00 | 22 | 995.5 |
| 20260505024522 | 80 | 253 | 17.0 | 21.0 | 0.00 | 0.00 | 0.00 | 21 | 995.6 |
| 20260505023022 | 81 | 250 | 16.0 | 22.0 | 0.00 | 0.00 | 0.00 | 21 | 995.6 |
| 20260505021520 | 81 | 254 | 20.0 | 26.0 | 0.00 | 0.00 | 0.00 | 20 | 995.3 |
| 20260505020019 | 82 | 254 | 25.0 | 33.0 | 0.00 | 0.00 | 0.00 | 19 | 995.2 |